TimeMST,TemperatureF,Dew PointF,Humidity,Sea Level PressureIn,VisibilityMPH,Wind Direction,Wind SpeedMPH,Gust SpeedMPH,PrecipitationIn,Events,Conditions,WindDirDegrees,DateUTC
12:55 AM,55.9,45.0,67,30.00,10.0,Calm,Calm,-,N/A,,Mostly Cloudy,0,2013-02-04 07:55:00
1:55 AM,55.9,45.0,67,29.99,10.0,Calm,Calm,-,N/A,,Scattered Clouds,0,2013-02-04 08:55:00
3:55 AM,54.0,44.1,69,29.99,10.0,Calm,Calm,-,N/A,,Scattered Clouds,0,2013-02-04 10:55:00
4:55 AM,53.1,43.0,69,29.98,10.0,Calm,Calm,-,N/A,,Scattered Clouds,0,2013-02-04 11:55:00
5:55 AM,54.0,42.1,64,29.98,10.0,Calm,Calm,-,N/A,,Scattered Clouds,0,2013-02-04 12:55:00
6:55 AM,53.1,42.1,66,29.99,10.0,Calm,Calm,-,N/A,,Partly Cloudy,0,2013-02-04 13:55:00
7:55 AM,53.1,43.0,69,30.01,8.0,Calm,Calm,-,N/A,,Partly Cloudy,0,2013-02-04 14:55:00
8:55 AM,62.1,41.0,46,30.02,10.0,North,4.6,-,N/A,,Partly Cloudy,350,2013-02-04 15:55:00
9:55 AM,64.0,39.9,41,30.03,10.0,North,5.8,-,N/A,,Partly Cloudy,360,2013-02-04 16:55:00
10:55 AM,68.0,42.1,39,30.04,10.0,NE,4.6,-,N/A,,Partly Cloudy,50,2013-02-04 17:55:00
11:55 AM,72.0,37.9,29,30.03,10.0,North,10.4,-,N/A,,Partly Cloudy,360,2013-02-04 18:55:00
12:55 PM,75.0,35.1,23,30.00,10.0,North,10.4,-,N/A,,Partly Cloudy,10,2013-02-04 19:55:00
1:55 PM,75.9,34.0,22,29.97,10.0,North,9.2,-,N/A,,Partly Cloudy,350,2013-02-04 20:55:00
2:55 PM,75.9,34.0,22,29.95,10.0,NNE,5.8,-,N/A,,Partly Cloudy,20,2013-02-04 21:55:00
3:55 PM,77.0,33.1,20,29.92,10.0,North,9.2,-,N/A,,Partly Cloudy,360,2013-02-04 22:55:00
4:55 PM,75.9,32.0,20,29.92,10.0,North,9.2,-,N/A,,Partly Cloudy,360,2013-02-04 23:55:00
5:55 PM,73.9,30.9,21,29.92,10.0,NNW,9.2,-,N/A,,Partly Cloudy,340,2013-02-05 00:55:00
6:55 PM,70.0,30.0,23,29.93,10.0,North,5.8,-,N/A,,Clear,350,2013-02-05 01:55:00
7:55 PM,66.9,32.0,27,29.95,10.0,NNW,4.6,-,N/A,,Clear,340,2013-02-05 02:55:00
8:55 PM,66.0,33.1,29,29.96,10.0,WNW,4.6,-,N/A,,Clear,300,2013-02-05 03:55:00
9:55 PM,63.0,36.0,37,29.97,10.0,Calm,Calm,-,N/A,,Clear,0,2013-02-05 04:55:00
10:55 PM,60.1,39.9,47,29.97,10.0,Calm,Calm,-,N/A,,Clear,0,2013-02-05 05:55:00
11:55 PM,57.9,41.0,53,29.96,10.0,Calm,Calm,-,N/A,,Clear,0,2013-02-05 06:55:00